Regional Weather Roundup
Issued by NWS

Home | Current Version | Previous Version | Text Only | Print | Product List | Glossary Off
Versions: 1 2 3 4 5 6 7 8 9 10 11 12 13 14 15 16 17 18 19 20 21 22 23 24 25 26 27 28

000
ASUS45 KBOU 010007
RWRCO

WEATHER ROUNDUP FOR COLORADO
NATIONAL WEATHER SERVICE DENVER/BOULDER CO
600 PM MDT TUE MAY 31 2016

NOTE: "FAIR" INDICATES FEW OR NO CLOUDS BELOW 12000 FEET WITH NO
SIGNIFICANT WEATHER AND/OR OBSTRUCTIONS TO VISIBILITY.

COZ001>005-013-030-031-010100-
...NORTHWEST COLORADO...

CITY           SKY/WX    TMP DP  RH WIND       PRES   REMARKS
CRAIG          FAIR      70  35  27 N5        30.07S
HAYDEN         FAIR      66  34  30 NW13      30.09S
MEEKER         FAIR      72  31  22 NE15      30.06S
MOUNT WERNER   NOT AVBL
STEAMBOAT SPGS FAIR      67  30  25 W6        30.10S
WALDEN         NOT AVBL
$$

COZ006>008-011-010100-
...WEST CENTRAL VALLEYS...

CITY           SKY/WX    TMP DP  RH WIND       PRES   REMARKS
GRAND JUNCTION FAIR      80  30  16 N10       29.91S
MONTROSE       FAIR      78  30  17 N14       29.97F
EAGLE          MOSUNNY   73  25  16 SW8       30.04R
RIFLE          PTSUNNY   75  31  19 CALM      29.98F
DELTA          NOT AVBL
NUCLA          FAIR      77  25  14 N6        30.00S
$$

COZ017>023-064>068-010100-
...SOUTHWEST COLORADO...

CITY           SKY/WX    TMP DP  RH WIND       PRES   REMARKS
DURANGO        FAIR      75  21  13 NW13      29.97S
CORTEZ         FAIR      81  30  15 N13G21    29.95F
PAGOSA SPRINGS FAIR      71  15  11 N3        30.04S
TELLURIDE      FAIR      62  28  27 CALM      30.19S
WOLF CREEK PAS NOT AVBL
$$

COZ009-010-012-014-032>034-037-058>063-010100-
...CENTRAL COLORADO...

CITY           SKY/WX    TMP DP  RH WIND       PRES   REMARKS
ASPEN          PTSUNNY   65  32  29 S8        30.12F
BUENA VISTA    NOT AVBL
COPPER MTN     NOT AVBL
BERTHOUD PASS  PTSUNNY   32  25  74 NW24G30   30.37F WCI  19
COTTONWOOD PAS FAIR      64  19  17 NW6       30.21S
GUNNISON       FAIR      70  19  14 NW8       30.09R
KREMMLING      FAIR      68  21  17 NW10G18   30.11S
LEADVILLE      FAIR      52  28  39 N18       30.24S
MONARCH PASS   FAIR      46  25  42 N21G28    30.44R
SALIDA         FAIR      67  41  38 SE17G31   30.13R
SUNLIGHT       CLOUDY    46  32  57 W8        30.34R
WILKERSON PASS CLOUDY    41  37  87 E12G23    30.34S VSB 3/4
$$

COZ069>075-010100-
...SAN LUIS VALLEY/SANGRE DE CRISTO MOUNTAINS...

CITY           SKY/WX    TMP DP  RH WIND       PRES   REMARKS
ALAMOSA        FAIR      71  29  21 SW21G28   30.01F
LA VETA PASS   TSTM      45  37  76 SE12G20   30.25R
SAGUACHE       FAIR      72  27  18 W9        30.05F
$$

COZ035-036-038>040-010100-
...NORTHERN COLORADO FRONT RANGE...

CITY           SKY/WX    TMP DP  RH WIND       PRES   REMARKS
DENVER INTL AP CLOUDY    61  48  62 E12       30.09R THUNDER
DMNS CITY PARK   N/A     64  48  56 NE9G21    30.07S
AURORA         NOT AVBL
FRONT RANGE AP PTSUNNY   59  50  72 NE13      30.10R
ERIE MUNI ARPT CLOUDY    65  44  47 NE6       30.07S
BOULDER MUN AP PTSUNNY   63  45  51 NE5       30.08R
CENTENNIAL     PTSUNNY   63  50  62 NE9       30.08S
BROOMFIELD     PTSUNNY   64  46  52 VRB12     30.10R
FORT COLLINS   FAIR      43  43 100 CALM      30.08S
LONGMONT       PTSUNNY   65  46  49 E3        30.10R
$$

COZ041-046-047-076>085-087-088-010100-
...PIKES PEAK/PALMER DIVIDE AND SOUTHERN FOOTHILLS...

CITY           SKY/WX    TMP DP  RH WIND       PRES   REMARKS
COLO. SPRINGS  PTSUNNY   63  45  51 S13       30.10R
A. F. ACADEMY  CLOUDY    57  50  77 NE2       30.11R
SCHRIEVER AFB  NOT AVBL
ELLICOTT       FAIR     N/A N/A N/A SE12G21   30.08F
FALCON         PTSUNNY   57  48  72 S3        30.14R
FORT CARSON    PTSUNNY   65  47  52 SE10      30.07R
LIMON          CLOUDY    62  49  62 SE5       30.08R
MONUMENT HILL  TSTM      52  46  82 N6        30.17R
TRINIDAD       FAIR      70  38  31 W12       30.02F
$$

COZ042>045-048>051-090-091-010100-
...NORTHEAST COLORADO...

CITY           SKY/WX    TMP DP  RH WIND       PRES   REMARKS
GREELEY ARPT   CLOUDY    70  46  43 CALM      30.08R
AKRON          FAIR      66  47  50 NE7       30.07R
BURLINGTON     PTSUNNY   68  45  43 NE9       30.05R
WRAY           NOT AVBL
STERLING       PTSUNNY   64  45  48 CALM      30.05R
HOLYOKE        NOT AVBL
FORT MORGAN    PTSUNNY   68  44  41 E8        30.06F
$$

COZ086-089-092>099-010100-
...SOUTHEAST COLORADO...

CITY           SKY/WX    TMP DP  RH WIND       PRES   REMARKS
PUEBLO         PTSUNNY   73  48  41 E15       29.99S
LA JUNTA       PTSUNNY   76  49  38 E12       29.98R
LAMAR          FAIR      75  53  46 E17G23    29.96R
SPRINGFIELD      N/A     69  54  58 E10       29.99F
$$




USA.gov is the U.S. government's official web portal to all federal, state and local government web resources and services.